Location: Chin
(49.7667°N, 112.4500°W)
Time: 12:28:19
(UTC+00:00)

N. Korean satellite - Pass Details

Date: 08 December 2021
Orbit: 447 x 490 km, 97.3° (Epoch: 27 January)

Event Time Altitude Azimuth Distance (km) Brightness Sun altitude
Rises 13:51:27 0° 360° (N) 2,467 9.9 -12.6°
Reaches altitude 10° 13:53:51 10° 343° (NNW) 1,587 8.8 -12.3°
Maximum altitude 13:56:23 20° 295° (WNW) 1,105 7.7 -11.9°
Drops below altitude 10° 13:58:54 10° 246° (WSW) 1,577 8.7 -11.5°
Sets 14:01:17 0° 229° (SW) 2,446 9.9 -11.2°
